contact:dominique.lefevre@mio.osupytheas.fr, maurice.libes@osupytheas.fr, didier.mallarino@osupytheas.fr
Project:EMSO http://www.emso-fr.org/EMSO-France
Depth: 2436.0 m
Title:EMSO Ligure Ouest : Data MII capteur MICROCAT
DateTime_Computer,Latitude,Longitude,Temperature,Conductivity,Pressure,DateTime_Instrument
DateTime_Computer,Latitude,Longitude,degC,S m-1,dbar,DateTime_Instrument
2020-06-24T00:02:37Z,42.805,6.029,13.2970,4.59975,2470.156,2020-6-24T02:03:22Z
2020-06-24T00:05:40Z,42.805,6.029,13.2976,4.59975,2470.18,2020-6-24T02:06:25Z
2020-06-24T00:08:43Z,42.805,6.029,13.2976,4.59976,2470.11,2020-6-24T02:09:28Z
2020-06-24T00:11:46Z,42.805,6.029,13.2977,4.59976,2470.133,2020-6-24T02:12:31Z
2020-06-24T00:14:50Z,42.805,6.029,13.2976,4.59976,2470.133,2020-6-24T02:15:35Z
2020-06-24T00:17:53Z,42.805,6.029,13.2972,4.59976,2470.156,2020-6-24T02:18:38Z
2020-06-24T00:20:56Z,42.805,6.029,13.2974,4.59977,2470.133,2020-6-24T02:21:41Z
2020-06-24T00:23:59Z,42.805,6.029,13.2976,4.59975,2470.171,2020-6-24T02:24:44Z
2020-06-24T00:27:02Z,42.805,6.029,13.2975,4.59977,2470.171,2020-6-24T02:27:48Z
2020-06-24T00:30:06Z,42.805,6.029,13.2971,4.59975,2470.133,2020-6-24T02:30:51Z
2020-06-24T00:33:09Z,42.805,6.029,13.2974,4.59975,2470.133,2020-6-24T02:33:54Z
2020-06-24T00:36:12Z,42.805,6.029,13.2973,4.59975,2470.171,2020-6-24T02:36:57Z
2020-06-24T00:39:15Z,42.805,6.029,13.2976,4.59976,2470.133,2020-6-24T02:40:00Z
2020-06-24T00:42:19Z,42.805,6.029,13.2974,4.59975,2470.133,2020-6-24T02:43:04Z
2020-06-24T00:45:22Z,42.805,6.029,13.2973,4.59975,2470.171,2020-6-24T02:46:07Z
2020-06-24T00:48:25Z,42.805,6.029,13.2974,4.59976,2470.156,2020-6-24T02:49:10Z
2020-06-24T00:51:28Z,42.805,6.029,13.2973,4.59974,2470.147,2020-6-24T02:52:13Z
2020-06-24T00:54:31Z,42.805,6.029,13.2972,4.59976,2470.133,2020-6-24T02:55:17Z
2020-06-24T00:57:35Z,42.805,6.029,13.2972,4.59974,2470.171,2020-6-24T02:58:20Z
2020-06-24T01:00:38Z,42.805,6.029,13.2976,4.59974,2470.11,2020-6-24T03:01:23Z
2020-06-24T01:03:41Z,42.805,6.029,13.2976,4.59973,2470.124,2020-6-24T03:04:26Z
2020-06-24T01:06:44Z,42.805,6.029,13.2971,4.59975,2470.147,2020-6-24T03:07:29Z
2020-06-24T01:09:48Z,42.805,6.029,13.2973,4.59974,2470.11,2020-6-24T03:10:33Z
2020-06-24T01:12:51Z,42.805,6.029,13.2973,4.59976,2470.133,2020-6-24T03:13:36Z
2020-06-24T01:15:54Z,42.805,6.029,13.2974,4.59975,2470.11,2020-6-24T03:16:39Z
2020-06-24T01:18:58Z,42.805,6.029,13.2971,4.59973,2470.124,2020-6-24T03:19:43Z
2020-06-24T01:22:01Z,42.805,6.029,13.2974,4.59975,2470.147,2020-6-24T03:22:46Z
2020-06-24T01:25:04Z,42.805,6.029,13.2976,4.59978,2470.087,2020-6-24T03:25:49Z
2020-06-24T01:28:08Z,42.805,6.029,13.2971,4.59974,2470.11,2020-6-24T03:28:53Z
2020-06-24T01:31:11Z,42.805,6.029,13.2973,4.59974,2470.124,2020-6-24T03:31:56Z
2020-06-24T01:34:14Z,42.805,6.029,13.2975,4.59973,2470.1,2020-6-24T03:34:59Z
2020-06-24T01:37:17Z,42.805,6.029,13.2972,4.59975,2470.124,2020-6-24T03:38:02Z
2020-06-24T01:40:21Z,42.805,6.029,13.2971,4.59974,2470.063,2020-6-24T03:41:06Z
2020-06-24T01:43:24Z,42.805,6.029,13.2975,4.59974,2470.11,2020-6-24T03:44:09Z
2020-06-24T01:46:27Z,42.805,6.029,13.2971,4.59975,2470.1,2020-6-24T03:47:12Z
2020-06-24T01:49:30Z,42.805,6.029,13.2972,4.59976,2470.124,2020-6-24T03:50:15Z
2020-06-24T01:52:34Z,42.805,6.029,13.2975,4.59974,2470.087,2020-6-24T03:53:19Z
2020-06-24T01:55:37Z,42.805,6.029,13.2972,4.59975,2470.124,2020-6-24T03:56:22Z
2020-06-24T01:58:40Z,42.805,6.029,13.2974,4.59974,2470.087,2020-6-24T03:59:25Z
2020-06-24T02:01:43Z,42.805,6.029,13.2974,4.59975,2470.077,2020-6-24T04:02:29Z
2020-06-24T02:04:47Z,42.805,6.029,13.2974,4.59976,2470.087,2020-6-24T04:05:32Z
2020-06-24T02:07:50Z,42.805,6.029,13.2973,4.59975,2470.077,2020-6-24T04:08:35Z
2020-06-24T02:10:53Z,42.805,6.029,13.2976,4.59974,2470.11,2020-6-24T04:11:38Z
2020-06-24T02:13:57Z,42.805,6.029,13.2972,4.59974,2470.1,2020-6-24T04:14:42Z
2020-06-24T02:17:00Z,42.805,6.029,13.2971,4.59976,2470.077,2020-6-24T04:17:45Z
2020-06-24T02:20:03Z,42.805,6.029,13.2974,4.59974,2470.087,2020-6-24T04:20:48Z
2020-06-24T02:23:06Z,42.805,6.029,13.2980,4.59976,2470.087,2020-6-24T04:23:51Z
2020-06-24T02:26:10Z,42.805,6.029,13.2969,4.59978,2470.1,2020-6-24T04:26:55Z
2020-06-24T02:29:13Z,42.805,6.029,13.2968,4.59976,2470.04,2020-6-24T04:29:58Z
2020-06-24T02:32:16Z,42.805,6.029,13.2968,4.59976,2470.063,2020-6-24T04:33:01Z
2020-06-24T02:35:19Z,42.805,6.029,13.2974,4.59975,2470.063,2020-6-24T04:36:04Z
2020-06-24T02:38:23Z,42.805,6.029,13.2975,4.59973,2470.063,2020-6-24T04:39:08Z
2020-06-24T02:41:26Z,42.805,6.029,13.2970,4.59975,2470.063,2020-6-24T04:42:11Z
2020-06-24T02:44:29Z,42.805,6.029,13.2972,4.59974,2470.077,2020-6-24T04:45:14Z
2020-06-24T02:47:32Z,42.805,6.029,13.2977,4.59974,2470.053,2020-6-24T04:48:17Z
2020-06-24T02:50:36Z,42.805,6.029,13.2974,4.59976,2470.063,2020-6-24T04:51:21Z
2020-06-24T02:53:39Z,42.805,6.029,13.2971,4.59978,2470.087,2020-6-24T04:54:24Z
2020-06-24T02:56:42Z,42.805,6.029,13.2971,4.59975,2470.087,2020-6-24T04:57:27Z
2020-06-24T02:59:45Z,42.805,6.029,13.2971,4.59976,2470.077,2020-6-24T05:00:30Z
2020-06-24T03:02:48Z,42.805,6.029,13.2971,4.59976,2470.063,2020-6-24T05:03:34Z
2020-06-24T03:05:52Z,42.805,6.029,13.2974,4.59977,2470.063,2020-6-24T05:06:37Z
2020-06-24T03:08:55Z,42.805,6.029,13.2972,4.59974,2470.063,2020-6-24T05:09:40Z
2020-06-24T03:11:58Z,42.805,6.029,13.2968,4.59974,2470.063,2020-6-24T05:12:43Z
2020-06-24T03:15:01Z,42.805,6.029,13.2975,4.59973,2470.077,2020-6-24T05:15:47Z
2020-06-24T03:18:05Z,42.805,6.029,13.2974,4.59973,2470.04,2020-6-24T05:18:50Z
2020-06-24T03:21:08Z,42.805,6.029,13.2971,4.59975,2470.04,2020-6-24T05:21:53Z
2020-06-24T03:24:11Z,42.805,6.029,13.2974,4.59975,2470.053,2020-6-24T05:24:56Z
2020-06-24T03:27:15Z,42.805,6.029,13.2974,4.59974,2470.087,2020-6-24T05:28:00Z
2020-06-24T03:30:18Z,42.805,6.029,13.2968,4.59981,2470.04,2020-6-24T05:31:03Z
2020-06-24T03:33:21Z,42.805,6.029,13.2971,4.59975,2470.04,2020-6-24T05:34:06Z
2020-06-24T03:36:24Z,42.805,6.029,13.2973,4.59975,2470.026,2020-6-24T05:37:10Z
2020-06-24T03:39:28Z,42.805,6.029,13.2969,4.59973,2470.04,2020-6-24T05:40:13Z
2020-06-24T03:42:31Z,42.805,6.029,13.2967,4.59973,2470.04,2020-6-24T05:43:16Z
2020-06-24T03:45:34Z,42.805,6.029,13.2971,4.59974,2470.063,2020-6-24T05:46:19Z
2020-06-24T03:48:37Z,42.805,6.029,13.2972,4.59974,2470.077,2020-6-24T05:49:22Z
2020-06-24T03:51:41Z,42.805,6.029,13.2972,4.59975,2470.017,2020-6-24T05:52:26Z
2020-06-24T03:54:44Z,42.805,6.029,13.2971,4.59974,2470.04,2020-6-24T05:55:29Z
2020-06-24T03:57:47Z,42.805,6.029,13.2967,4.59974,2470.04,2020-6-24T05:58:32Z
2020-06-24T04:00:50Z,42.805,6.029,13.2973,4.59976,2470.077,2020-6-24T06:01:36Z
2020-06-24T04:03:54Z,42.805,6.029,13.2972,4.59974,2470.077,2020-6-24T06:04:39Z
2020-06-24T04:06:57Z,42.805,6.029,13.2973,4.59974,2470.017,2020-6-24T06:07:42Z
2020-06-24T04:10:00Z,42.805,6.029,13.2970,4.59974,2470.017,2020-6-24T06:10:45Z
2020-06-24T04:13:03Z,42.805,6.029,13.2971,4.59973,2470.04,2020-6-24T06:13:48Z
2020-06-24T04:16:07Z,42.805,6.029,13.2972,4.59975,2470.017,2020-6-24T06:16:52Z
2020-06-24T04:19:10Z,42.805,6.029,13.2974,4.59974,2470.053,2020-6-24T06:19:55Z
2020-06-24T04:22:13Z,42.805,6.029,13.2979,4.59978,2470.017,2020-6-24T06:22:58Z
2020-06-24T04:25:17Z,42.805,6.029,13.2971,4.59974,2470.077,2020-6-24T06:26:02Z
2020-06-24T04:28:20Z,42.805,6.029,13.2970,4.59974,2470.04,2020-6-24T06:29:05Z
2020-06-24T04:31:23Z,42.805,6.029,13.2974,4.59973,2470.017,2020-6-24T06:32:08Z
2020-06-24T04:34:27Z,42.805,6.029,13.2969,4.59975,2470.053,2020-6-24T06:35:12Z
2020-06-24T04:37:30Z,42.805,6.029,13.2973,4.59975,2470.017,2020-6-24T06:38:15Z
2020-06-24T04:40:33Z,42.805,6.029,13.2974,4.59974,2470.053,2020-6-24T06:41:18Z
2020-06-24T04:43:36Z,42.805,6.029,13.2971,4.59980,2470.04,2020-6-24T06:44:21Z
2020-06-24T04:46:40Z,42.805,6.029,13.2973,4.59975,2470.04,2020-6-24T06:47:25Z
2020-06-24T04:49:43Z,42.805,6.029,13.2972,4.59974,2470.017,2020-6-24T06:50:28Z
2020-06-24T04:52:46Z,42.805,6.029,13.2970,4.59978,2470.04,2020-6-24T06:53:31Z
2020-06-24T04:55:49Z,42.805,6.029,13.2971,4.59974,2470.04,2020-6-24T06:56:34Z
2020-06-24T04:58:53Z,42.805,6.029,13.2974,4.59974,2470.053,2020-6-24T06:59:38Z
2020-06-24T05:01:56Z,42.805,6.029,13.2971,4.59973,2470.04,2020-6-24T07:02:41Z
2020-06-24T05:04:59Z,42.805,6.029,13.2973,4.59973,2470.053,2020-6-24T07:05:44Z
2020-06-24T05:08:02Z,42.805,6.029,13.2972,4.59974,2470.04,2020-6-24T07:08:47Z
2020-06-24T05:11:05Z,42.805,6.029,13.2974,4.59976,2470.063,2020-6-24T07:11:50Z
2020-06-24T05:14:09Z,42.805,6.029,13.2971,4.59976,2470.04,2020-6-24T07:14:54Z
2020-06-24T05:17:12Z,42.805,6.029,13.2975,4.59976,2470.053,2020-6-24T07:17:57Z
2020-06-24T05:20:15Z,42.805,6.029,13.2976,4.59974,2470.063,2020-6-24T07:21:00Z
2020-06-24T05:23:18Z,42.805,6.029,13.2971,4.59974,2470.04,2020-6-24T07:24:04Z
2020-06-24T05:26:22Z,42.805,6.029,13.2969,4.59974,2470.063,2020-6-24T07:27:07Z
2020-06-24T05:29:25Z,42.805,6.029,13.2973,4.59975,2470.063,2020-6-24T07:30:10Z
2020-06-24T05:32:28Z,42.805,6.029,13.2970,4.59975,2470.077,2020-6-24T07:33:13Z
2020-06-24T05:35:31Z,42.805,6.029,13.2969,4.59976,2470.063,2020-6-24T07:36:16Z
2020-06-24T05:38:35Z,42.805,6.029,13.2972,4.59976,2470.077,2020-6-24T07:39:20Z
2020-06-24T05:41:38Z,42.805,6.029,13.2973,4.59976,2470.053,2020-6-24T07:42:23Z
2020-06-24T05:44:41Z,42.805,6.029,13.2971,4.59975,2470.087,2020-6-24T07:45:27Z
2020-06-24T05:47:45Z,42.805,6.029,13.2973,4.59976,2470.077,2020-6-24T07:48:30Z
2020-06-24T05:50:48Z,42.805,6.029,13.2971,4.59978,2470.087,2020-6-24T07:51:33Z
2020-06-24T05:53:51Z,42.805,6.029,13.2971,4.59975,2470.077,2020-6-24T07:54:36Z
2020-06-24T05:56:54Z,42.805,6.029,13.2974,4.59978,2470.063,2020-6-24T07:57:39Z
2020-06-24T05:59:58Z,42.805,6.029,13.2971,4.59979,2470.11,2020-6-24T08:00:43Z
2020-06-24T06:03:01Z,42.805,6.029,13.2974,4.59975,2470.087,2020-6-24T08:03:46Z
2020-06-24T06:06:04Z,42.805,6.029,13.2974,4.59977,2470.1,2020-6-24T08:06:49Z
2020-06-24T06:09:07Z,42.805,6.029,13.2972,4.59976,2470.077,2020-6-24T08:09:52Z
2020-06-24T06:12:11Z,42.805,6.029,13.2974,4.59978,2470.087,2020-6-24T08:12:56Z
2020-06-24T06:15:14Z,42.805,6.029,13.2971,4.59976,2470.087,2020-6-24T08:15:59Z
2020-06-24T06:18:17Z,42.805,6.029,13.2975,4.59977,2470.087,2020-6-24T08:19:02Z
2020-06-24T06:21:20Z,42.805,6.029,13.2976,4.59979,2470.124,2020-6-24T08:22:05Z
2020-06-24T06:24:23Z,42.805,6.029,13.2971,4.59976,2470.063,2020-6-24T08:25:09Z
2020-06-24T06:27:27Z,42.805,6.029,13.2972,4.59978,2470.11,2020-6-24T08:28:12Z
2020-06-24T06:30:30Z,42.805,6.029,13.2969,4.59975,2470.133,2020-6-24T08:31:15Z
2020-06-24T06:33:33Z,42.805,6.029,13.2972,4.59976,2470.1,2020-6-24T08:34:18Z
2020-06-24T06:36:36Z,42.805,6.029,13.2974,4.59978,2470.11,2020-6-24T08:37:22Z
2020-06-24T06:39:40Z,42.805,6.029,13.2971,4.59976,2470.087,2020-6-24T08:40:25Z
2020-06-24T06:42:43Z,42.805,6.029,13.2968,4.59977,2470.04,2020-6-24T08:43:28Z
2020-06-24T06:45:46Z,42.805,6.029,13.2972,4.59975,2470.124,2020-6-24T08:46:31Z
2020-06-24T06:48:49Z,42.805,6.029,13.2973,4.59976,2470.11,2020-6-24T08:49:35Z
2020-06-24T06:51:53Z,42.805,6.029,13.2973,4.59988,2470.124,2020-6-24T08:52:38Z
2020-06-24T06:54:56Z,42.805,6.029,13.2973,4.59976,2470.087,2020-6-24T08:55:41Z
2020-06-24T06:57:59Z,42.805,6.029,13.2974,4.59976,2470.133,2020-6-24T08:58:44Z
2020-06-24T07:01:03Z,42.805,6.029,13.2973,4.59977,2470.11,2020-6-24T09:01:48Z
2020-06-24T07:04:06Z,42.805,6.029,13.2974,4.59975,2470.11,2020-6-24T09:04:51Z
2020-06-24T07:07:09Z,42.805,6.029,13.2972,4.59975,2470.1,2020-6-24T09:07:54Z
2020-06-24T07:10:12Z,42.805,6.029,13.2977,4.59976,2470.1,2020-6-24T09:10:57Z
2020-06-24T07:13:15Z,42.805,6.029,13.2975,4.59976,2470.11,2020-6-24T09:14:00Z
2020-06-24T07:16:19Z,42.805,6.029,13.2972,4.59978,2470.11,2020-6-24T09:17:04Z
2020-06-24T07:19:22Z,42.805,6.029,13.2972,4.59976,2470.11,2020-6-24T09:20:07Z
2020-06-24T07:22:25Z,42.805,6.029,13.2974,4.59974,2470.156,2020-6-24T09:23:10Z
2020-06-24T07:25:28Z,42.805,6.029,13.2970,4.59976,2470.147,2020-6-24T09:26:14Z
2020-06-24T07:28:32Z,42.805,6.029,13.2971,4.59976,2470.133,2020-6-24T09:29:17Z
2020-06-24T07:31:35Z,42.805,6.029,13.2971,4.59977,2470.133,2020-6-24T09:32:20Z
2020-06-24T07:34:38Z,42.805,6.029,13.2973,4.59977,2470.147,2020-6-24T09:35:23Z
2020-06-24T07:37:42Z,42.805,6.029,13.2971,4.59976,2470.147,2020-6-24T09:38:27Z
2020-06-24T07:40:45Z,42.805,6.029,13.2975,4.59978,2470.133,2020-6-24T09:41:30Z
2020-06-24T07:43:48Z,42.805,6.029,13.2974,4.59983,2470.133,2020-6-24T09:44:33Z
2020-06-24T07:46:51Z,42.805,6.029,13.2972,4.59976,2470.147,2020-6-24T09:47:36Z
2020-06-24T07:49:54Z,42.805,6.029,13.2976,4.59976,2470.133,2020-6-24T09:50:40Z
2020-06-24T07:52:58Z,42.805,6.029,13.2976,4.59979,2470.133,2020-6-24T09:53:43Z
2020-06-24T07:56:01Z,42.805,6.029,13.2972,4.59976,2470.171,2020-6-24T09:56:46Z
2020-06-24T07:59:04Z,42.805,6.029,13.2973,4.59978,2470.156,2020-6-24T09:59:49Z
2020-06-24T08:02:08Z,42.805,6.029,13.2973,4.59976,2470.133,2020-6-24T10:02:53Z
2020-06-24T08:05:11Z,42.805,6.029,13.2974,4.59976,2470.133,2020-6-24T10:05:56Z
2020-06-24T08:08:14Z,42.805,6.029,13.2973,4.59981,2470.156,2020-6-24T10:08:59Z
2020-06-24T08:11:17Z,42.805,6.029,13.2971,4.59976,2470.171,2020-6-24T10:12:02Z
2020-06-24T08:14:21Z,42.805,6.029,13.2971,4.59975,2470.133,2020-6-24T10:15:06Z
2020-06-24T08:17:24Z,42.805,6.029,13.2974,4.59981,2470.156,2020-6-24T10:18:09Z
2020-06-24T08:20:27Z,42.805,6.029,13.2974,4.59976,2470.147,2020-6-24T10:21:12Z
2020-06-24T08:23:30Z,42.805,6.029,13.2971,4.59978,2470.171,2020-6-24T10:24:15Z
2020-06-24T08:26:34Z,42.805,6.029,13.2975,4.59986,2470.133,2020-6-24T10:27:19Z
2020-06-24T08:29:37Z,42.805,6.029,13.2975,4.59976,2470.147,2020-6-24T10:30:22Z
2020-06-24T08:32:40Z,42.805,6.029,13.2976,4.59977,2470.171,2020-6-24T10:33:25Z
2020-06-24T08:35:43Z,42.805,6.029,13.2973,4.59976,2470.147,2020-6-24T10:36:28Z
2020-06-24T08:38:46Z,42.805,6.029,13.2973,4.59975,2470.156,2020-6-24T10:39:32Z
2020-06-24T08:41:50Z,42.805,6.029,13.2971,4.59976,2470.133,2020-6-24T10:42:35Z
2020-06-24T08:44:53Z,42.805,6.029,13.2974,4.59976,2470.147,2020-6-24T10:45:38Z
2020-06-24T08:47:56Z,42.805,6.029,13.2970,4.59976,2470.18,2020-6-24T10:48:41Z
2020-06-24T08:50:59Z,42.805,6.029,13.2976,4.59976,2470.18,2020-6-24T10:51:45Z
2020-06-24T08:54:03Z,42.805,6.029,13.2974,4.59974,2470.143,2020-6-24T10:54:48Z
2020-06-24T08:57:06Z,42.805,6.029,13.2972,4.59976,2470.133,2020-6-24T10:57:51Z
2020-06-24T09:00:09Z,42.805,6.029,13.2975,4.59980,2470.133,2020-6-24T11:00:54Z
2020-06-24T09:03:12Z,42.805,6.029,13.2971,4.59976,2470.133,2020-6-24T11:03:58Z
2020-06-24T09:06:16Z,42.805,6.029,13.2976,4.59976,2470.133,2020-6-24T11:07:01Z
2020-06-24T09:09:19Z,42.805,6.029,13.2975,4.59976,2470.147,2020-6-24T11:10:04Z
2020-06-24T09:12:22Z,42.805,6.029,13.2973,4.59978,2470.11,2020-6-24T11:13:07Z
2020-06-24T09:15:25Z,42.805,6.029,13.2969,4.59976,2470.156,2020-6-24T11:16:10Z
2020-06-24T09:18:29Z,42.805,6.029,13.2974,4.59978,2470.133,2020-6-24T11:19:14Z
2020-06-24T09:21:32Z,42.805,6.029,13.2974,4.59977,2470.133,2020-6-24T11:22:17Z
2020-06-24T09:24:35Z,42.805,6.029,13.2976,4.59975,2470.171,2020-6-24T11:25:20Z
2020-06-24T09:27:38Z,42.805,6.029,13.2974,4.59976,2470.171,2020-6-24T11:28:23Z
2020-06-24T09:30:42Z,42.805,6.029,13.2967,4.59976,2470.171,2020-6-24T11:31:27Z
2020-06-24T09:33:45Z,42.805,6.029,13.2969,4.59979,2470.133,2020-6-24T11:34:30Z
2020-06-24T09:36:48Z,42.805,6.029,13.2970,4.59976,2470.171,2020-6-24T11:37:33Z
2020-06-24T09:39:51Z,42.805,6.029,13.2973,4.59975,2470.156,2020-6-24T11:40:36Z
2020-06-24T09:42:55Z,42.805,6.029,13.2974,4.59977,2470.171,2020-6-24T11:43:40Z
2020-06-24T09:45:58Z,42.805,6.029,13.2971,4.59978,2470.133,2020-6-24T11:46:43Z
2020-06-24T09:49:01Z,42.805,6.029,13.2974,4.59977,2470.133,2020-6-24T11:49:46Z
2020-06-24T09:52:04Z,42.805,6.029,13.2975,4.59974,2470.156,2020-6-24T11:52:49Z
2020-06-24T09:55:07Z,42.805,6.029,13.2970,4.59976,2470.087,2020-6-24T11:55:53Z
2020-06-24T09:58:11Z,42.805,6.029,13.2972,4.59976,2470.156,2020-6-24T11:58:56Z
2020-06-24T10:01:14Z,42.805,6.029,13.2977,4.59976,2470.147,2020-6-24T12:01:59Z
2020-06-24T10:04:17Z,42.805,6.029,13.2972,4.59975,2470.11,2020-6-24T12:05:02Z
2020-06-24T10:07:20Z,42.805,6.029,13.2976,4.59976,2470.124,2020-6-24T12:08:06Z
2020-06-24T10:10:24Z,42.805,6.029,13.2974,4.59976,2470.11,2020-6-24T12:11:09Z
2020-06-24T10:13:27Z,42.805,6.029,13.2975,4.59980,2470.133,2020-6-24T12:14:12Z
2020-06-24T10:16:30Z,42.805,6.029,13.2972,4.59976,2470.087,2020-6-24T12:17:15Z
2020-06-24T10:19:33Z,42.805,6.029,13.2978,4.59976,2470.1,2020-6-24T12:20:18Z
2020-06-24T10:22:37Z,42.805,6.029,13.2974,4.59979,2470.087,2020-6-24T12:23:22Z
2020-06-24T10:25:40Z,42.805,6.029,13.2977,4.59976,2470.11,2020-6-24T12:26:25Z
2020-06-24T10:28:43Z,42.805,6.029,13.2974,4.59980,2470.1,2020-6-24T12:29:28Z
2020-06-24T10:31:47Z,42.805,6.029,13.2976,4.59976,2470.11,2020-6-24T12:32:32Z
2020-06-24T10:34:50Z,42.805,6.029,13.2971,4.59976,2470.11,2020-6-24T12:35:35Z
2020-06-24T10:37:53Z,42.805,6.029,13.2972,4.59976,2470.11,2020-6-24T12:38:38Z
2020-06-24T10:40:56Z,42.805,6.029,13.2974,4.59976,2470.087,2020-6-24T12:41:41Z
2020-06-24T10:44:00Z,42.805,6.029,13.2975,4.59975,2470.133,2020-6-24T12:44:45Z
2020-06-24T10:47:03Z,42.805,6.029,13.2970,4.59976,2470.133,2020-6-24T12:47:48Z
2020-06-24T10:50:06Z,42.805,6.029,13.2972,4.59976,2470.1,2020-6-24T12:50:51Z
2020-06-24T10:53:09Z,42.805,6.029,13.2971,4.59978,2470.11,2020-6-24T12:53:54Z
2020-06-24T10:56:12Z,42.805,6.029,13.2971,4.59976,2470.087,2020-6-24T12:56:58Z
2020-06-24T10:59:16Z,42.805,6.029,13.2976,4.59976,2470.1,2020-6-24T13:00:01Z
2020-06-24T11:02:19Z,42.805,6.029,13.2976,4.59976,2470.124,2020-6-24T13:03:04Z
2020-06-24T11:05:22Z,42.805,6.029,13.2973,4.59975,2470.087,2020-6-24T13:06:07Z
2020-06-24T11:08:25Z,42.805,6.029,13.2970,4.59975,2470.11,2020-6-24T13:09:10Z
2020-06-24T11:11:29Z,42.805,6.029,13.2975,4.59976,2470.077,2020-6-24T13:12:14Z
2020-06-24T11:14:32Z,42.805,6.029,13.2971,4.59976,2470.124,2020-6-24T13:15:17Z
2020-06-24T11:17:35Z,42.805,6.029,13.2974,4.59975,2470.087,2020-6-24T13:18:20Z
2020-06-24T11:20:38Z,42.805,6.029,13.2971,4.59975,2470.063,2020-6-24T13:21:24Z
2020-06-24T11:23:42Z,42.805,6.029,13.2972,4.59975,2470.063,2020-6-24T13:24:27Z
2020-06-24T11:26:45Z,42.805,6.029,13.2971,4.59976,2470.1,2020-6-24T13:27:30Z
2020-06-24T11:29:48Z,42.805,6.029,13.2975,4.59979,2470.087,2020-6-24T13:30:33Z
2020-06-24T11:32:51Z,42.805,6.029,13.2974,4.59975,2470.077,2020-6-24T13:33:36Z
2020-06-24T11:35:55Z,42.805,6.029,13.2974,4.59977,2470.077,2020-6-24T13:36:40Z
2020-06-24T11:38:58Z,42.805,6.029,13.2974,4.59974,2470.073,2020-6-24T13:39:43Z
2020-06-24T11:42:01Z,42.805,6.029,13.2974,4.59975,2470.063,2020-6-24T13:42:46Z
2020-06-24T11:45:04Z,42.805,6.029,13.2976,4.59976,2470.053,2020-6-24T13:45:50Z
2020-06-24T11:48:08Z,42.805,6.029,13.2977,4.59976,2470.1,2020-6-24T13:48:53Z
2020-06-24T11:51:11Z,42.805,6.029,13.2982,4.59982,2470.077,2020-6-24T13:51:56Z
2020-06-24T11:54:14Z,42.805,6.029,13.2977,4.59979,2470.11,2020-6-24T13:54:59Z
2020-06-24T11:57:17Z,42.805,6.029,13.2990,4.59980,2470.04,2020-6-24T13:58:02Z
2020-06-24T12:00:21Z,42.805,6.029,13.2990,4.59983,2470.063,2020-6-24T14:01:06Z
2020-06-24T12:03:24Z,42.805,6.029,13.2998,4.60013,2470.077,2020-6-24T14:04:09Z
2020-06-24T12:06:27Z,42.805,6.029,13.3001,4.59991,2470.063,2020-6-24T14:07:12Z
2020-06-24T12:09:30Z,42.805,6.029,13.2993,4.59986,2470.063,2020-6-24T14:10:15Z
2020-06-24T12:12:34Z,42.805,6.029,13.2981,4.59981,2470.063,2020-6-24T14:13:19Z
2020-06-24T12:15:37Z,42.805,6.029,13.2982,4.59978,2470.1,2020-6-24T14:16:22Z
2020-06-24T12:18:40Z,42.805,6.029,13.2992,4.59999,2470.04,2020-6-24T14:19:25Z
2020-06-24T12:21:43Z,42.805,6.029,13.2992,4.59995,2470.053,2020-6-24T14:22:28Z
2020-06-24T12:24:47Z,42.805,6.029,13.2993,4.60002,2470.077,2020-6-24T14:25:32Z
2020-06-24T12:27:50Z,42.805,6.029,13.2998,4.60009,2470.063,2020-6-24T14:28:35Z
2020-06-24T12:30:53Z,42.805,6.029,13.2985,4.59991,2470.053,2020-6-24T14:31:38Z
2020-06-24T12:33:56Z,42.805,6.029,13.2998,4.60006,2470.03,2020-6-24T14:34:41Z
2020-06-24T12:37:00Z,42.805,6.029,13.2997,4.60018,2470.053,2020-6-24T14:37:45Z
2020-06-24T12:40:03Z,42.805,6.029,13.2997,4.60002,2470.087,2020-6-24T14:40:48Z
2020-06-24T12:43:06Z,42.805,6.029,13.3001,4.60006,2470.017,2020-6-24T14:43:51Z
2020-06-24T12:46:09Z,42.805,6.029,13.2991,4.60005,2470.04,2020-6-24T14:46:54Z
2020-06-24T12:49:12Z,42.805,6.029,13.2999,4.59999,2470.03,2020-6-24T14:49:58Z
2020-06-24T12:52:16Z,42.805,6.029,13.3016,4.59997,2470.053,2020-6-24T14:53:01Z
2020-06-24T12:55:19Z,42.805,6.029,13.2996,4.60042,2470.04,2020-6-24T14:56:04Z
2020-06-24T12:58:22Z,42.805,6.029,13.2995,4.60028,2470.053,2020-6-24T14:59:07Z
2020-06-24T13:01:25Z,42.805,6.029,13.2999,4.60041,2470.053,2020-6-24T15:02:11Z
2020-06-24T13:04:29Z,42.805,6.029,13.2998,4.60027,2470.007,2020-6-24T15:05:14Z
2020-06-24T13:07:32Z,42.805,6.029,13.2993,4.60019,2470.04,2020-6-24T15:08:17Z
2020-06-24T13:10:35Z,42.805,6.029,13.3002,4.59997,2470.017,2020-6-24T15:11:20Z
2020-06-24T13:13:38Z,42.805,6.029,13.2988,4.60023,2470.03,2020-6-24T15:14:23Z
2020-06-24T13:16:42Z,42.805,6.029,13.3003,4.60044,2470.03,2020-6-24T15:17:27Z
2020-06-24T13:19:45Z,42.805,6.029,13.2996,4.60020,2470.017,2020-6-24T15:20:30Z
2020-06-24T13:22:48Z,42.805,6.029,13.2985,4.60011,2470.053,2020-6-24T15:23:33Z
2020-06-24T13:25:51Z,42.805,6.029,13.2991,4.60011,2470.04,2020-6-24T15:26:36Z
2020-06-24T13:28:55Z,42.805,6.029,13.3004,4.60011,2470.04,2020-6-24T15:29:40Z
2020-06-24T13:31:58Z,42.805,6.029,13.2991,4.59999,2470.03,2020-6-24T15:32:43Z
2020-06-24T13:35:01Z,42.805,6.029,13.2996,4.60000,2470.003,2020-6-24T15:35:46Z
2020-06-24T13:38:04Z,42.805,6.029,13.2998,4.60012,2470.053,2020-6-24T15:38:49Z
2020-06-24T13:41:08Z,42.805,6.029,13.3003,4.60010,2469.993,2020-6-24T15:41:53Z
2020-06-24T13:44:11Z,42.805,6.029,13.2985,4.60041,2470.017,2020-6-24T15:44:56Z
2020-06-24T13:47:14Z,42.805,6.029,13.2986,4.60043,2470.03,2020-6-24T15:47:59Z
2020-06-24T13:50:17Z,42.805,6.029,13.2994,4.60043,2470.007,2020-6-24T15:51:03Z
2020-06-24T13:53:21Z,42.805,6.029,13.2993,4.60039,2470.017,2020-6-24T15:54:06Z
2020-06-24T13:56:24Z,42.805,6.029,13.2995,4.60034,2470.007,2020-6-24T15:57:09Z
2020-06-24T13:59:27Z,42.805,6.029,13.2996,4.60029,2470.007,2020-6-24T16:00:12Z
2020-06-24T14:02:31Z,42.805,6.029,13.2993,4.60032,2470.04,2020-6-24T16:03:16Z
2020-06-24T14:05:34Z,42.805,6.029,13.2986,4.60029,2469.993,2020-6-24T16:06:19Z
2020-06-24T14:08:37Z,42.805,6.029,13.2987,4.60033,2470.007,2020-6-24T16:09:22Z
2020-06-24T14:11:41Z,42.805,6.029,13.3024,4.60013,2470.017,2020-6-24T16:12:26Z
2020-06-24T14:14:44Z,42.805,6.029,13.2989,4.60019,2469.993,2020-6-24T16:15:29Z
2020-06-24T14:17:47Z,42.805,6.029,13.2982,4.60000,2469.993,2020-6-24T16:18:32Z
2020-06-24T14:20:51Z,42.805,6.029,13.2994,4.60026,2469.993,2020-6-24T16:21:36Z
2020-06-24T14:23:54Z,42.805,6.029,13.2979,4.60009,2470.017,2020-6-24T16:24:39Z
2020-06-24T14:26:57Z,42.805,6.029,13.2983,4.60006,2469.993,2020-6-24T16:27:42Z
2020-06-24T14:30:01Z,42.805,6.029,13.2991,4.60011,2470.017,2020-6-24T16:30:46Z
2020-06-24T14:33:04Z,42.805,6.029,13.2986,4.60012,2469.96,2020-6-24T16:33:49Z
2020-06-24T14:36:07Z,42.805,6.029,13.2982,4.60007,2469.97,2020-6-24T16:36:52Z
2020-06-24T14:39:11Z,42.805,6.029,13.2983,4.59998,2470.017,2020-6-24T16:39:56Z
2020-06-24T14:42:14Z,42.805,6.029,13.2981,4.60000,2469.984,2020-6-24T16:42:59Z
2020-06-24T14:45:17Z,42.805,6.029,13.2983,4.59992,2470.007,2020-6-24T16:46:02Z
2020-06-24T14:48:20Z,42.805,6.029,13.2979,4.59988,2469.993,2020-6-24T16:49:05Z
2020-06-24T14:51:24Z,42.805,6.029,13.2973,4.59989,2470.03,2020-6-24T16:52:09Z
2020-06-24T14:54:27Z,42.805,6.029,13.2976,4.59995,2469.993,2020-6-24T16:55:12Z
2020-06-24T14:57:30Z,42.805,6.029,13.2976,4.59998,2470.007,2020-6-24T16:58:15Z
2020-06-24T15:00:33Z,42.805,6.029,13.2983,4.59991,2469.97,2020-6-24T17:01:18Z
2020-06-24T15:03:36Z,42.805,6.029,13.2979,4.59994,2469.993,2020-6-24T17:04:22Z
2020-06-24T15:06:40Z,42.805,6.029,13.2980,4.59988,2469.97,2020-6-24T17:07:25Z
2020-06-24T15:09:43Z,42.805,6.029,13.2976,4.60005,2470.007,2020-6-24T17:10:28Z
2020-06-24T15:12:46Z,42.805,6.029,13.2976,4.59990,2470.007,2020-6-24T17:13:31Z
2020-06-24T15:15:49Z,42.805,6.029,13.2978,4.59994,2470.007,2020-6-24T17:16:35Z